Location: Allonne
(49.4086°N, 2.1143°E)
Time: 06:23:17
(UTC+00:00)

Cosmos 2322 Rocket - Visible Passes

Search period start: 24 September 2023 00:00
Search period end: 04 October 2023 00:00
Orbit: 833 x 849 km, 71.0° (Epoch: 23 September)

Date Brightness Start Highest point End Pass type
(mag) Time Alt. Az. Time Alt. Az. Time Alt. Az.
24 Sep 5.2 00:47:48 10° N 00:49:29 11° NNE 00:51:09 10° NE visible
24 Sep 3.8 02:30:15 10° NNW 02:35:23 34° NE 02:40:30 10° ESE visible
24 Sep 2.3 04:14:12 10° NW 04:19:39 51° WSW 04:25:05 10° S visible
24 Sep 2.9 19:09:28 10° SW 19:14:59 57° NW 19:20:32 10° NNE visible
24 Sep 5.0 20:56:57 10° WNW 21:00:19 16° NNW 21:03:41 10° N visible
25 Sep 5.2 00:32:46 10° N 00:34:14 11° NNE 00:35:43 10° NE visible
25 Sep 3.8 02:15:07 10° NNW 02:20:12 33° NE 02:25:16 10° ESE visible
25 Sep 2.3 03:59:01 10° NW 04:04:30 53° WSW 04:09:59 10° S visible
25 Sep 2.8 18:54:17 10° SW 18:59:48 59° WNW 19:05:23 10° NNE visible
25 Sep 4.9 20:41:38 10° WNW 20:45:06 16° NNW 20:48:34 10° N visible
26 Sep 5.2 00:17:45 10° N 00:19:00 11° NNE 00:20:16 10° NE visible
26 Sep 3.8 01:59:58 10° NNW 02:05:00 32° NE 02:10:01 10° ESE visible
26 Sep 2.2 03:43:50 10° NW 03:49:22 56° WSW 03:54:52 10° S visible
26 Sep 2.8 18:39:05 10° SW 18:44:39 62° WNW 18:50:14 10° NNE visible
26 Sep 4.9 20:26:19 10° WNW 20:29:53 17° NW 20:33:27 10° N visible
27 Sep 5.2 00:02:47 10° NNE 00:03:46 10° NNE 00:04:46 10° NNE visible
27 Sep 3.9 01:44:50 10° NNW 01:49:49 30° NE 01:54:47 10° ESE visible
27 Sep 2.1 03:28:40 10° NW 03:34:13 59° WSW 03:39:46 10° S visible
27 Sep 2.7 18:23:54 10° SW 18:29:28 65° WNW 18:35:05 10° NNE visible
27 Sep 4.8 20:11:00 10° WNW 20:14:40 17° NW 20:18:21 10° N visible
27 Sep 5.2 23:47:55 10° NNE 23:48:32 10° NNE 23:49:09 10° NNE visible
28 Sep 3.9 01:29:42 10° NNW 01:34:37 29° NE 01:39:32 10° ESE visible
28 Sep 2.1 03:13:30 10° NW 03:19:05 62° WSW 03:24:39 10° SSE visible
28 Sep 2.6 18:08:43 10° SW 18:14:18 68° WNW 18:19:56 10° NNE visible
28 Sep 4.8 19:55:42 10° WNW 19:59:27 18° NW 20:03:13 10° N visible
29 Sep 4.0 01:14:34 10° NNW 01:18:56 28° NE 01:18:56 28° NE visible
29 Sep 3.6 02:58:19 10° NNW 03:00:33 24° NW 03:00:33 24° NW visible
29 Sep 4.8 19:40:24 10° W 19:44:14 18° NW 19:48:07 10° N visible
30 Sep 4.3 00:59:26 10° NNW 01:02:21 23° NNE 01:02:21 23° NNE visible
30 Sep 4.3 02:43:09 10° NNW 02:44:03 15° NW 02:44:03 15° NW visible
30 Sep 4.7 19:25:06 10° W 19:29:01 19° NW 19:32:59 10° N visible
01 Oct 4.5 00:44:18 10° NNW 00:46:25 19° N 00:46:25 19° N visible
01 Oct 4.6 02:27:59 10° NNW 02:28:08 11° NNW 02:28:08 11° NNW visible
01 Oct 4.7 19:09:48 10° W 19:13:49 20° NW 19:17:52 10° N visible
02 Oct 4.7 00:29:10 10° NNW 00:30:46 17° N 00:30:46 17° N visible
02 Oct 4.6 18:54:30 10° W 18:58:37 20° NW 19:02:44 10° N visible
03 Oct 4.8 00:14:02 10° NNW 00:15:18 15° N 00:15:18 15° N visible
03 Oct 4.6 18:39:13 10° W 18:43:24 21° NW 18:47:37 10° N visible
